リード彗星

238P/Read (2022)

English version
Home page
Updated on December 18, 2023

---------------------------------------------------------------------

・ プロフィール

・ 軌道要素

Epoch 2023 Sept. 13.0 TT = JDT 2460200.5                                        
T 2022 June 5.37891 TT                                  Rudenko                 
q   2.3697966            (2000.0)            P               Q                  
n   0.17501167     Peri.  324.20913     +0.96193446     -0.27273247             
a   3.1653716      Node    51.62702     +0.25558188     +0.87542989             
e   0.2513370      Incl.    1.26401     +0.09674706     +0.39904826             
P   5.63                                                                        
>From 334 observations 2005 Oct. 23-2023 Oct. 16, mean residual 0".6.            
     Nongravitational parameters A1 = +0.18, A2 = -0.0072.                      

・ 光度変化

        m1 = 8.0 + 5 logΔ + 30 log r

---------------------------------------------------------------------

軌道要素はM.P.E.C. 2023-U276に掲載されたものです。
光度グラフはComet for Windowsで作成したものです。

---------------------------------------------------------------------

Copyright(C) Seiichi Yoshida (comet@aerith.net). All rights reserved.